This is the latest recevied weather packets stored in our database for station/object KK4PWJ-13. If no packets are shown the sender has not sent any weather packets the latest 10 day(s).
| Time | Temp. | Humidity | Pressure | Rain* | Wind** | Luminosity | Snow |
|---|---|---|---|---|---|---|---|
| 1778251977 | 14.44° C | 64% | 1016 hPa | 0 mm | - | 37 W/m² | - |
| 1778251674 | 14.44° C | 80% | 1016.2 hPa | 0 mm | - | 114 W/m² | - |
| 1778251372 | 13.89° C | 83% | 1016.2 hPa | 0 mm | - | 239 W/m² | - |
| 1778251069 | 13.89° C | 87% | 1016.1 hPa | 0 mm | - | 112 W/m² | - |
| 1778250766 | 13.89° C | 85% | 1016.1 hPa | 0 mm | - | 39 W/m² | - |
| 1778250462 | 13.33° C | 90% | 1016.1 hPa | 0 mm | - | 33 W/m² | - |
| 1778250159 | 12.78° C | 88% | 1016.2 hPa | 0 mm | - | 32 W/m² | - |
| 1778249856 | 12.78° C | 92% | 1016.1 hPa | 0 mm | - | 92 W/m² | - |
| 1778249553 | 12.78° C | 92% | 1016.3 hPa | 0 mm | - | 41 W/m² | - |
| 1778249250 | 12.78° C | 92% | 1016.1 hPa | 0 mm | - | 31 W/m² | - |
| 1778248947 | 12.22° C | 96% | 1016.2 hPa | 0 mm | - | 30 W/m² | - |
| 1778248643 | 12.22° C | 99% | 1016.1 hPa | 0 mm | - | 31 W/m² | - |
| 1778248339 | 11.67° C | 99% | 1016.1 hPa | 0 mm | - | 29 W/m² | - |
| 1778248035 | 11.67° C | 99% | 1015.9 hPa | 0 mm | - | 30 W/m² | - |
| 1778247429 | 11.11° C | 99% | 1015.9 hPa | 0 mm | - | 28 W/m² | - |
| 1778247128 | 11.11° C | 99% | 1015.8 hPa | 0 mm | - | 27 W/m² | - |
| 1778246825 | 10.56° C | 99% | 1015.9 hPa | 0 mm | - | 33 W/m² | - |
| 1778246522 | 10.56° C | 99% | 1015.7 hPa | 0 mm | - | 25 W/m² | - |
| 1778246217 | 10.56° C | 99% | 1015.8 hPa | 0 mm | - | 25 W/m² | - |
| 1778245914 | 10.56° C | 99% | 1015.8 hPa | 0 mm | - | 30 W/m² | - |
| 1778245610 | 10.56° C | 99% | 1015.8 hPa | 0 mm | - | 24 W/m² | - |
| 1778245308 | 10° C | 99% | 1015.8 hPa | 0 mm | - | 24 W/m² | - |
| 1778245003 | 10° C | 99% | 1015.8 hPa | 0 mm | - | 23 W/m² | - |
| 1778244700 | 10° C | 99% | 1015.9 hPa | 0 mm | - | 36 W/m² | - |
| 1778244398 | 9.44° C | 99% | 1015.8 hPa | 0 mm | - | 31 W/m² | - |
* Rain latest hour (hover to see other rain measurements)
** Current wind speed in m/s (hover to see current wind gust speed)